STARLINK-34061 (63876 NORAD) Tracking and Keplerian Element Data

This shows tracking and keplerian element data for the satellite.

Feedback or suggestion? Click here.




ElementValue
Catalog63876
NameSTARLINK-34061
Epoch Orbit3525
Epoch Day353.94780027
Epoch Year2025
RAAN75.715
Inclination70.0035
Eccentricity0.0002589
Argument of Perigee272.2082
Mean Anonmoly87.8781
Mean Motion14.98329153
Decay Rate2.076E-05
L11 63876U 25094N 25353.94780027 .00002076 00000+0 18175-3 0 9994
L22 63876 70.0035 75.7150 0002589 272.2082 87.8781 14.98329153 35258



Live tracking and technical data element details for STARLINK-34061 (NORAD 63876). STARLINK-34061 can be tracked NOW for your location showing map with azimuth and elevation plus other details from your city location.







IsCatalogInMostPopularTable: catalog: 63876, numindb: 1
Update: records affected: 1



GetName: 63876 STARLINK-34061

Hit Count: updated at: Sun, 08 Feb 2026 08:01:44 GMT